Probability
0 0 0 3 3 6 6 3 3 6 3 0 0 0 0 0 0 0 0 0 0 0 0 0 0 0 0 0 0 0 0 0 0 0 0 0 0 0 0 0 0 0 0
0 0 0 3 3 3 6 6 3 3 0 0 0 0 0 0 0 0 0 0 0 0 0 0 0 0 0 0 0 0 0 0 0 0 0 0 0 0 0 0 0 0 0
0 0 0 3 3 3 3 6 3 3 0 0 0 0 0 0 0 0 0 0 0 0 0 0 0 0 0 0 0 0 0 0 0 0 0 0 0 0 0 0 0 0 0
0 0 3 3 3 3 3 3 6 0 0 0 0 0 0 0 0 0 0 0 0 0 0 0 0 0 0 0 0 0 0 0 0 0 0 0 0 0 0 0 0 0 0
0 0 0 0 0 0 3 0 0 0 0 0 0 0 0 0 0 0 0 0 0 0 0 0 0 0 0 0 0 0 0 0 0 0 0 0 0 0 0 0 0 0 0
0 0 0 0 0 0 0 0 0 0 0 0 0 0 0 0 0 0 0 0 0 0 0 0 0 0 0 0 0 0 0 0 0 0 0 0 0 0 0 0 0 0 0
0 0 0 0 0 0 0 0 0 0 0 0 0 0 0 0 0 0 0 0 0 0 0 0 0 0 0 0 0 0 0 0 0 0 0 0 0 0 0 0 0 0 0
0 0 0 0 0 0 0 0 0 0 0 0 0 0 0 0 0 0 0 0 0 0 0 0 0 0 0 0 0 0 0 0 0 0 0 0 0 0 0 0 0 0 0
0 0 0 0 0 0 0 0 0 0 0 0 0 0 0 0 0 0 0 0 0 0 0 0 0 0 0 0 0 0 0 0 0 0 0 0 0 0 0 0 0 0 0
0 0 0 0 0 0 0 0 0 0 0 0 0 0 0 0 0 0 0 0 0 0 0 0 0 0 0 0 0 0 0 0 0 0 0 0 0 0 0 0 0 0 0
0 0 0 0 0 0 0 0 0 0 0 0 0 0 0 0 0 0 0 0 0 0 0 0 0 0 0 0 0 0 0 0 0 0 0 0 0 0 0 0 0 0 0
0 0 0 0 0 0 0 0 0 0 0 0 0 0 0 0 0 0 0 0 0 0 0 0 0 0 0 0 0 0 0 0 0 0 0 0 0 0 0 0 0 0 0
0 0 0 0 0 0 0 0 0 0 0 0 0 0 0 0 0 0 0 0 0 0 0 0 0 0 0 0 0 0 0 0 0 0 0 0 0 0 0 0 0 0 0
0 0 0 0 0 0 0 0 0 0 0 0 0 0 0 0 0 0 0 0 0 0 0 0 0 0 0 0 0 0 0 0 0 0 0 0 0 0 0 0 0 0 0
0 0 0 0 0 0 0 0 0 0 0 0 0 0 0 0 0 0 0 0 0 0 0 0 0 0 0 0 0 0 0 0 0 0 0 0 0 0 0 0 0 0 0
0 0 0 0 0 0 0 0 0 0 0 0 0 0 0 0 0 0 0 0 0 0 0 0 0 0 0 0 0 0 0 0 0 0 0 0 0 0 0 0 0 0 0
0 0 0 0 0 0 0 0 0 0 0 0 0 0 0 0 0 0 0 0 0 0 0 0 0 0 0 0 0 0 0 0 0 0 0 0 0 0 0 0 0 0 0
0 0 0 0 0 0 0 0 0 0 0 0 0 0 0 0 0 0 0 0 0 0 0 0 0 0 0 0 0 0 0 0 0 0 0 0 0 0 0 0 0 0 0
0 0 0 0 0 0 0 0 0 0 0 0 0 0 0 0 0 0 0 0 0 0 0 0 0 0 0 0 0 0 0 0 0 0 0 0 0 0 0 0 0 0 0
0 0 0 0 0 0 0 0 0 0 0 0 0 0 0 0 0 0 0 0 0 0 0 0 0 0 0 0 0 0 0 0 0 0 0 0 0 0 0 0 0 0 0
0 0 0 0 0 0 0 0 0 0 0 0 0 0 0 0 0 0 0 0 0 0 0 0 0 0 0 0 0 0 0 0 0 0 0 0 0 0 0 0 0 0 0
0 0 0 0 0 0 0 0 0 0 0 0 0 0 0 0 0 0 0 0 0 0 0 0 0 0 0 0 0 0 0 0 0 0 0 0 0 0 0 0 0 0 0
0 0 0 0 0 0 0 0 0 0 0 0 0 0 0 0 0 0 0 0 0 0 0 0 0 0 0 0 0 0 0 0 0 0 0 0 0 0 0 0 0 0 0
0 0 0 0 0 0 0 0 0 0 0 0 0 0 0 0 0 0 0 0 0 0 0 0 0 0 0 0 0 0 0 0 0 0 0 0 0 0 0 0 0 0 0
0 0 0 0 0 0 0 0 0 0 0 0 0 0 0 0 0 0 0 0 0 0 0 0 0 0 0 0 0 0 0 0 0 0 0 0 0 0 0 0 0 0 0
0 0 0 0 0 0 0 0 0 0 0 0 0 0 0 0 0 0 0 0 0 0 0 0 0 0 0 0 0 0 0 0 0 0 0 0 0 0 0 0 0 0 0
Height
5685 5690 5694 5699 5705 5711 5716 5722 5728 5734 5739 5744 5750 5755 5761 5766 5771 5776 5781 5786 5790 5795 5799 5803 5807 5811 5815 5818 5821 5824 5826 5829 5831 5833 5834 5836 5837 5838 5839 5840 5840 5841 5841
5673 5677 5681 5687 5692 5698 5704 5709 5716 5722 5728 5734 5739 5745 5750 5756 5761 5766 5771 5776 5781 5786 5791 5795 5799 5803 5807 5811 5814 5817 5820 5822 5825 5827 5828 5830 5832 5833 5834 5835 5835 5836 5836
5660 5665 5670 5675 5680 5686 5692 5698 5704 5711 5717 5722 5728 5733 5739 5744 5750 5756 5762 5767 5772 5777 5782 5787 5791 5795 5799 5803 5807 5810 5813 5815 5818 5820 5823 5824 5826 5827 5828 5829 5830 5831 5831
5649 5653 5658 5663 5669 5674 5679 5686 5692 5699 5705 5711 5717 5722 5729 5734 5740 5746 5752 5757 5763 5768 5773 5778 5782 5786 5791 5795 5798 5802 5805 5808 5811 5813 5816 5818 5820 5821 5822 5824 5824 5825 5825
5637 5642 5647 5652 5657 5662 5668 5674 5680 5686 5693 5700 5706 5712 5718 5724 5730 5735 5741 5747 5753 5758 5763 5768 5773 5777 5782 5786 5790 5793 5797 5800 5803 5806 5808 5810 5812 5814 5816 5817 5818 5819 5819
5626 5631 5636 5640 5645 5650 5656 5662 5669 5674 5681 5688 5694 5700 5707 5714 5719 5724 5731 5737 5742 5748 5753 5758 5763 5768 5773 5777 5781 5784 5788 5791 5795 5798 5800 5803 5805 5807 5809 5810 5811 5812 5813
5615 5620 5624 5629 5633 5639 5644 5650 5656 5662 5669 5676 5682 5689 5696 5703 5709 5715 5720 5726 5732 5737 5743 5748 5753 5758 5763 5767 5772 5775 5779 5782 5786 5789 5792 5794 5797 5799 5801 5802 5803 5805 5805
5604 5608 5613 5617 5622 5627 5633 5639 5644 5651 5657 5664 5671 5677 5683 5690 5698 5704 5710 5715 5721 5727 5732 5738 5743 5748 5753 5757 5762 5766 5770 5773 5777 5780 5783 5785 5788 5790 5792 5794 5796 5797 5798
5593 5597 5601 5606 5611 5616 5621 5627 5633 5639 5646 5652 5658 5665 5671 5678 5686 5692 5698 5704 5710 5716 5722 5727 5733 5738 5743 5747 5752 5756 5760 5764 5767 5771 5774 5777 5779 5781 5783 5785 5787 5789 5790
5584 5587 5591 5595 5599 5604 5610 5615 5621 5627 5633 5640 5646 5653 5660 5666 5673 5680 5687 5693 5699 5705 5711 5716 5722 5727 5732 5736 5741 5746 5750 5754 5758 5761 5765 5767 5770 5772 5774 5776 5778 5780 5781
5574 5577 5580 5583 5588 5592 5597 5603 5609 5615 5622 5628 5634 5641 5648 5655 5661 5668 5675 5681 5688 5693 5700 5705 5710 5716 5721 5726 5730 5735 5740 5744 5748 5752 5755 5758 5761 5763 5765 5767 5769 5770 5771
5564 5567 5570 5573 5576 5581 5586 5591 5597 5603 5610 5616 5622 5629 5636 5643 5649 5656 5663 5669 5676 5682 5688 5693 5699 5704 5709 5714 5719 5724 5729 5733 5737 5741 5745 5748 5751 5754 5756 5758 5759 5760 5762
5554 5556 5559 5562 5565 5569 5574 5579 5585 5591 5597 5603 5610 5617 5624 5630 5637 5644 5651 5657 5663 5670 5675 5681 5687 5693 5698 5703 5708 5713 5718 5722 5726 5730 5734 5737 5740 5743 5746 5748 5749 5751 5752
5545 5547 5549 5551 5555 5558 5562 5568 5573 5579 5584 5591 5597 5604 5612 5618 5625 5632 5638 5644 5651 5657 5663 5669 5675 5680 5686 5691 5697 5702 5706 5711 5715 5719 5723 5726 5729 5732 5735 5737 5739 5740 5741
5536 5537 5539 5541 5544 5547 5551 5556 5561 5566 5572 5578 5585 5592 5599 5606 5613 5619 5626 5632 5639 5645 5651 5656 5662 5668 5674 5679 5684 5690 5694 5699 5704 5708 5711 5715 5718 5721 5723 5726 5728 5729 5731
5527 5528 5529 5531 5534 5537 5540 5544 5549 5554 5560 5566 5573 5580 5587 5594 5600 5607 5614 5620 5626 5633 5639 5644 5650 5656 5661 5667 5672 5677 5682 5687 5691 5695 5699 5703 5706 5709 5711 5714 5716 5718 5720
5517 5518 5519 5521 5524 5526 5529 5533 5537 5542 5548 5554 5561 5568 5575 5581 5588 5595 5601 5608 5614 5620 5627 5632 5638 5643 5649 5654 5659 5664 5669 5674 5678 5682 5686 5690 5694 5696 5699 5701 5704 5706 5708
5508 5509 5510 5511 5513 5516 5519 5522 5526 5531 5536 5542 5548 5556 5563 5569 5576 5582 5589 5596 5602 5608 5614 5620 5626 5631 5637 5642 5646 5651 5655 5660 5665 5669 5673 5677 5680 5683 5686 5689 5691 5693 5695
5500 5500 5500 5502 5504 5506 5509 5512 5516 5520 5525 5531 5537 5544 5550 5557 5564 5570 5577 5583 5589 5595 5601 5608 5613 5619 5624 5629 5633 5638 5642 5647 5652 5656 5660 5663 5667 5670 5673 5675 5678 5681 5682
5492 5492 5492 5493 5494 5496 5498 5502 5506 5510 5515 5520 5526 5532 5539 5546 5553 5559 5565 5571 5577 5583 5589 5595 5601 5606 5611 5616 5620 5624 5629 5634 5639 5643 5646 5650 5653 5656 5658 5661 5664 5667 5669
5484 5484 5484 5485 5486 5487 5489 5493 5496 5500 5505 5509 5515 5520 5527 5534 5541 5547 5553 5559 5565 5571 5577 5583 5588 5593 5598 5603 5607 5611 5615 5620 5624 5628 5632 5635 5639 5642 5645 5647 5650 5653 5654
5477 5477 5477 5477 5478 5479 5481 5484 5488 5491 5495 5499 5504 5509 5515 5522 5528 5534 5540 5546 5553 5559 5564 5569 5575 5579 5585 5589 5594 5598 5602 5606 5610 5614 5618 5621 5624 5628 5631 5634 5636 5639 5640
5471 5470 5470 5470 5471 5472 5473 5476 5478 5481 5485 5489 5493 5498 5504 5510 5516 5522 5528 5534 5540 5546 5551 5556 5562 5567 5571 5576 5580 5584 5589 5593 5597 5600 5604 5607 5610 5613 5616 5620 5622 5624 5626
5464 5464 5463 5463 5464 5465 5466 5467 5469 5472 5475 5479 5483 5488 5494 5499 5505 5510 5516 5522 5528 5533 5538 5544 5549 5554 5558 5563 5567 5571 5575 5579 5582 5586 5589 5592 5596 5599 5602 5605 5607 5610 5612
5458 5457 5456 5456 5457 5457 5458 5459 5461 5463 5466 5469 5473 5478 5483 5488 5494 5499 5505 5510 5516 5521 5527 5532 5537 5542 5546 5549 5553 5557 5561 5565 5569 5572 5575 5578 5581 5584 5587 5590 5592 5594 5596
5451 5450 5449 5449 5449 5450 5450 5451 5452 5455 5457 5460 5464 5468 5473 5478 5483 5488 5494 5499 5505 5510 5515 5519 5524 5528 5533 5536 5540 5544 5548 5551 5555 5558 5561 5564 5567 5570 5573 5575 5577 5579 5581
Wind_Speed
48 49 50 51 51 52 52 51 52 51 50 50 49 49 48 47 47 46 45 44 43 42 40 38 37 35 34 33 32 30 28 26 26 26 25 24 24 23 22 21 21 21 21
48 49 49 51 51 52 52 51 52 51 51 50 50 50 49 49 48 47 46 45 44 44 42 41 39 37 36 36 34 33 31 29 28 27 27 26 25 25 24 23 22 22 22
47 48 48 49 51 51 52 52 51 52 51 50 51 51 50 50 50 49 47 46 45 44 44 43 41 40 39 38 37 35 34 32 30 29 29 28 27 26 25 25 24 24 23
47 48 48 48 50 50 52 53 52 52 53 51 50 50 50 50 49 48 47 46 45 45 44 44 43 42 41 39 39 38 37 35 33 32 31 30 29 28 27 26 25 25 25
47 47 47 48 49 49 50 53 53 53 54 53 52 51 51 51 50 49 48 47 46 46 45 45 44 43 42 41 40 39 38 37 36 34 33 32 31 30 29 28 27 26 26
46 46 47 48 49 49 49 52 54 53 54 54 54 53 52 51 51 50 49 48 48 47 47 45 45 45 43 42 42 40 39 38 38 37 35 34 33 32 31 30 29 28 28
44 45 47 48 49 50 50 52 53 53 53 54 54 54 53 53 52 51 49 49 49 49 47 46 46 46 45 44 43 42 41 41 40 39 38 36 35 34 33 32 31 30 30
43 45 46 48 49 50 51 52 53 53 53 54 54 55 55 54 53 53 52 51 50 50 49 48 47 46 46 46 45 43 42 42 41 40 39 38 37 36 36 35 34 33 32
42 44 46 48 49 50 51 53 54 54 54 53 53 55 55 55 55 54 54 52 51 50 50 50 50 48 47 46 46 45 44 43 41 41 40 40 39 38 37 36 36 35 35
40 42 45 47 48 50 50 52 54 53 54 54 53 54 55 56 56 55 55 54 52 51 51 51 52 50 49 47 47 46 45 45 43 42 41 40 40 39 38 38 37 37 37
39 40 42 46 48 49 50 53 53 54 54 55 53 53 55 56 56 56 56 55 54 53 52 51 51 51 51 49 48 48 47 46 45 44 42 41 40 40 39 39 39 38 38
38 39 41 43 46 48 50 53 54 54 54 54 54 54 54 54 55 56 56 56 55 55 54 53 53 52 52 51 50 49 48 47 45 45 45 43 42 41 41 40 40 40 39
36 38 40 42 44 46 48 51 54 55 54 54 55 55 55 54 55 55 55 55 55 55 55 55 55 55 54 53 51 50 49 48 47 47 46 46 45 44 42 42 41 41 41
34 36 38 40 43 46 48 51 53 55 54 55 56 56 55 55 55 55 55 56 55 55 56 56 56 54 54 54 52 51 50 49 48 48 48 48 47 46 44 43 43 43 42
33 35 37 39 40 43 46 48 51 53 54 55 57 56 56 56 56 55 54 55 56 55 55 55 56 55 54 54 54 53 52 51 50 50 49 48 48 48 47 46 45 45 44
32 33 35 37 39 40 44 48 49 51 52 54 55 56 57 57 57 56 55 55 55 55 55 54 54 54 54 54 54 54 54 53 52 51 50 50 50 50 48 47 46 45 44
29 32 34 36 38 40 41 45 47 49 51 53 54 55 55 56 57 58 57 56 56 55 55 55 54 54 54 54 54 53 54 54 53 52 52 52 52 51 50 48 47 47 46
27 29 32 34 36 38 40 43 46 48 49 51 53 54 54 55 56 57 57 56 56 56 56 55 55 54 54 54 54 54 54 55 54 53 53 53 52 52 51 50 49 49 48
26 27 29 32 34 37 39 42 45 46 47 49 52 53 53 54 54 55 56 55 55 56 56 56 55 54 55 55 56 56 55 55 55 54 54 53 53 52 52 52 51 51 50
25 25 27 29 32 34 37 40 43 44 45 47 50 52 53 54 54 54 54 54 54 54 54 54 54 54 53 53 54 55 55 56 55 55 54 54 54 53 53 52 52 52 52
24 25 26 27 29 32 34 37 39 41 44 45 47 50 51 53 53 54 54 53 53 54 54 54 54 54 53 53 53 53 54 55 56 56 56 55 55 54 54 52 52 51 51
23 24 24 25 27 29 32 34 35 39 41 44 45 47 50 52 52 53 54 54 54 54 54 54 53 53 53 53 53 53 54 54 54 55 55 55 55 54 53 53 53 52 52
23 23 23 23 25 27 29 31 33 35 38 40 42 44 47 49 51 52 53 53 53 53 53 54 54 53 53 53 53 54 54 53 53 53 54 54 54 54 53 54 54 54 54
23 22 23 23 24 25 27 29 31 34 36 39 40 42 44 47 48 50 52 52 51 52 52 53 53 53 53 53 52 52 52 52 52 52 53 53 54 55 55 56 56 56 55
22 22 23 24 24 25 26 28 31 33 34 36 38 40 42 44 46 48 49 50 50 50 50 50 50 51 51 51 51 51 51 52 52 52 52 53 53 54 54 55 55 55 55
21 22 23 24 24 25 25 26 29 31 33 35 36 38 40 42 44 46 46 47 48 48 48 48 48 47 47 47 48 49 50 51 51 52 52 52 52 53 54 54 54 55 55
Wind_Direction
234 235 235 233 233 231 230 230 231 231 231 231 231 231 231 231 230 230 231 231 231 231 232 232 232 232 232 234 236 238 239 241 244 246 249 251 253 255 258 259 261 261 262
234 234 234 233 232 231 229 229 230 229 230 230 231 230 230 231 231 231 231 231 232 232 233 233 233 233 233 234 236 238 240 242 245 247 249 252 254 255 258 258 260 262 263
234 233 232 232 231 231 229 228 228 228 228 229 229 229 229 229 230 231 231 232 232 232 234 234 233 234 235 236 236 238 240 242 244 246 248 251 254 257 258 258 259 261 263
233 232 231 231 231 231 229 228 228 228 228 228 229 229 229 229 229 230 231 231 232 232 233 233 234 234 236 237 238 239 241 242 244 246 248 251 254 257 259 259 260 261 262
232 232 231 231 231 231 229 227 227 228 227 227 229 229 228 228 229 229 230 231 232 232 233 234 234 234 235 236 238 239 241 243 244 246 248 250 253 255 258 259 260 262 263
233 232 231 232 232 231 230 227 226 227 227 227 228 228 228 228 229 229 230 231 231 232 233 234 235 235 236 237 238 239 241 243 245 246 248 250 252 254 256 258 260 261 263
234 233 232 232 232 232 231 228 227 228 227 227 228 228 228 229 229 230 230 232 232 232 233 234 235 236 237 238 240 241 242 244 245 246 248 250 251 253 254 257 258 260 262
236 235 234 233 233 232 231 229 229 228 228 227 227 228 228 228 229 230 230 232 232 233 233 234 235 236 237 238 239 241 242 243 245 246 247 249 251 252 254 257 258 258 261
239 237 236 236 234 233 232 230 229 229 228 227 227 227 228 229 230 230 231 231 232 233 234 235 235 236 237 238 239 240 241 243 245 246 247 249 250 252 255 257 258 259 261
241 240 239 237 235 234 233 231 229 228 228 227 227 228 229 230 230 231 232 232 232 233 234 235 236 236 237 238 239 240 242 243 245 246 247 248 250 252 254 256 258 260 262
244 242 240 237 235 233 233 232 230 229 229 229 229 229 229 230 231 231 232 233 233 233 234 235 235 236 238 239 240 241 242 243 245 246 247 248 250 252 254 256 258 260 262
244 244 242 239 236 233 232 232 231 229 230 229 229 229 230 230 231 231 232 233 233 234 235 235 236 236 238 239 240 242 242 243 244 246 247 247 249 251 253 256 258 260 262
247 245 244 241 238 235 234 232 232 231 231 230 229 229 229 230 231 231 231 232 233 233 234 234 235 237 239 239 240 241 242 243 245 246 247 248 249 251 254 256 258 260 262
253 249 245 243 240 238 236 233 232 232 232 230 228 228 229 230 231 231 232 232 233 234 234 234 235 236 238 238 240 241 242 243 244 246 248 249 250 251 253 256 258 259 260
255 252 248 245 242 240 237 234 232 231 231 229 229 229 229 230 231 231 231 232 233 233 235 235 235 235 237 239 240 241 242 243 243 245 247 248 250 252 254 255 256 258 259
256 252 250 247 243 241 239 235 234 233 232 231 230 229 229 230 231 231 232 232 233 234 234 235 236 236 237 238 239 241 242 242 243 244 246 248 250 252 253 254 255 257 259
258 254 249 247 245 242 240 236 233 233 232 231 231 231 230 231 232 232 232 232 233 234 234 235 236 237 238 239 240 241 242 242 243 244 245 247 249 251 252 254 255 257 259
260 256 250 246 245 243 241 237 234 233 233 232 231 231 231 232 232 233 233 234 235 235 234 236 237 238 239 240 242 242 243 243 244 245 246 248 250 251 253 254 255 257 258
265 258 253 249 246 243 241 238 235 234 233 233 232 232 231 232 232 233 234 234 235 236 236 237 239 240 240 241 243 244 245 245 246 248 249 251 252 253 254 254 256 257 257
269 262 257 251 247 244 241 238 236 235 234 234 233 232 231 231 232 233 234 234 235 237 237 238 240 241 241 243 244 245 246 246 246 248 249 251 252 253 253 254 255 256 257
270 265 259 254 250 247 242 238 237 236 235 234 234 232 231 231 231 232 233 235 235 236 238 239 240 241 241 243 245 245 246 246 247 248 250 251 252 252 253 254 255 255 256
270 267 262 256 252 248 244 240 239 238 235 234 232 231 230 229 230 231 233 234 235 236 238 239 240 241 243 244 245 246 247 247 248 249 250 250 252 253 253 253 255 256 257
269 265 261 257 254 250 245 243 242 239 236 233 232 231 229 229 230 231 233 234 235 236 238 239 240 242 243 244 245 247 248 249 249 249 250 250 250 252 253 254 256 257 258
271 267 264 260 255 251 249 247 243 239 236 234 232 231 230 230 230 231 233 234 235 236 237 238 240 242 244 245 246 247 248 248 249 250 251 251 252 252 254 255 256 258 258
273 271 267 264 259 257 254 249 245 240 239 236 234 233 232 232 231 232 233 233 234 237 238 239 240 242 243 245 246 246 247 248 249 250 252 253 252 252 253 254 256 257 258
276 274 268 263 261 259 257 251 247 243 240 237 235 234 233 232 231 231 233 234 235 236 237 239 240 241 243 244 246 247 248 249 250 251 252 253 253 253 253 254 256 257 258